Regional Weather Roundup
Issued by NWS Wakefield, VA

Home | Current Version | Previous Version | Text Only | Print | Product List | Glossary On
Versions: 1 2 3 4 5 6 7 8 9 10 11 12 13 14 15 16 17 18 19 20 21 22 23 24 25 26 27 28
000
ASUS41 KAKQ 161910
RWRAKQ

REGIONAL WEATHER ROUNDUP
NATIONAL WEATHER SERVICE WAKEFIELD VA
300 PM EDT WED APR 16 2014

Note: "fair" indicates few or no clouds below 12,000 feet with no
significant weather and/or obstructions to visibility. * = Denotes
station may not report precipitation (e.g., rain,snow,etc.),
thunder or fog.

VAZ042-051-052>054-056-162000-
NORTHERN VIRGINIA

CITY           SKY/WX    TMP DP  RH WIND       PRES   REMARKS
WASH NATIONAL  SUNNY     49  19  30 N15       30.45F
DULLES         MOSUNNY   46  17  31 NW8G18    30.45F
FORT BELVOIR   SUNNY     49  14  24 N8        30.45F
QUANTICO       SUNNY     49  18  29 NE7G14    30.45F
FREDERICKSBRG* SUNNY     50  18  27 N10       30.43F
STAFFORD*      SUNNY     49  20  32 N10G17    30.47F
WARRENTON      SUNNY     49  28  44 N12       30.43F
CULPEPER*      SUNNY     48   9  20 N14       30.44F
MANASSAS*      SUNNY     46  18  31 N14G21    30.44F
LEESBURG*      SUNNY     45  21  39 NE9       30.45F
WINCHESTER     SUNNY     45  16  31 CALM      30.43F
$$

VAZ048-049-060>072-079>083-162000-
CENTRAL AND SOUTH CENTRAL VIRGINIA...AND NORTH CENTRAL NORTH CAROLINA

CITY           SKY/WX    TMP DP  RH WIND       PRES   REMARKS
RICHMOND       SUNNY     52  16  24 NE10G17   30.40F
CHESTERFIELD*  CLEAR     50  16  25 NE6       30.41F
HANOVER        SUNNY     51  17  26 N7        30.42F
TAPPAHANNOCK*  SUNNY     50  13  22 N10G18    30.42S
CHARLOTTSVILLE SUNNY     49  19  30 N8        30.40F
ORANGE*        SUNNY     46  16  29 N13G18    30.44F
LOUISA*        SUNNY     48  18  29 NE12G17   30.41S
FARMVILLE*     SUNNY     52  19  28 N14G20    30.38F
SOUTH HILL*    SUNNY     52  21  30 N7        30.43S
ROANOKE RAPIDS CLEAR     54  28  37 NE7       30.38F
RALEIGH        SUNNY     52  25  35 E9        30.37S
$$

VAZ088>098-162000-
SOUTHEAST VIRGINIA

CITY           SKY/WX    TMP DP  RH WIND       PRES   REMARKS
NORFOLK        SUNNY     46  26  45 N22G30    30.41S
VIRGINIA BEACH MOSUNNY   48  29  47 N20G26    30.40S
NORFOLK NAVAL  MOSUNNY   48  26  42 NE21      30.43S
WEST POINT*    SUNNY     51  13  22 N9        30.43F
NEWPORT NEWS   SUNNY     53  24  32 NE8       30.40F
LANGLEY AFB    SUNNY     47  31  53 E20G26    30.42S
FORT EUSTIS    SUNNY     50  25  37 N8G17     30.38F
WILLIAMSBURG*  SUNNY     55  27  33 NE5       30.41F
FRANKLIN*      SUNNY     52  21  30 NE13      30.39F
WAKEFIELD      SUNNY     52  20  28 NE12G20   30.39F
$$

VAZ020-022-025-037-045-162000-
WESTERN AND SOUTHWEST VIRGINIA

CITY           SKY/WX    TMP DP  RH WIND       PRES   REMARKS
STAUNTON*      SUNNY     44  18  35 N6        30.41F
HOT SPRINGS VA SUNNY     39  16  38 S5        30.33F
LYNCHBURG      SUNNY     54  23  30 NE9G17    30.39F
DANVILLE       SUNNY     52  23  32 NE10      30.38F
MARTINSVILLE   SUNNY     52  23  31 E3        30.39F
ROANOKE        SUNNY     48  18  30 W5        30.38F
BLACKSBURG     SUNNY     46  25  42 SE6       30.35F
DUBLIN*        SUNNY     47  18  31 NE6       30.34F
MARION*        SUNNY     48  19  31 CALM      30.32F
HILLSVILLE*    SUNNY     48   7  18 E10G18    30.32F
RICHLANDS*     CLEAR     51  22  31 E8        30.28F
WISE*          SUNNY     50  18  27 NE3       30.29F
ABINGDON*      SUNNY     53  19  25 SE7       30.27F
$$

MDZ021>025-VAZ099-100-162000-
SOUTHERN MARYLAND AND THE DELMARVA PENINSULA

CITY           SKY/WX    TMP DP  RH WIND       PRES   REMARKS
PATUXENT RIVER SUNNY     46  22  38 N20G25    30.43F
BAY BRIDGE APT SUNNY     45  18  33 N14       30.45F
LEONARDTOWN    SUNNY     45  19  36 N7G17     30.44S
DOVER          SUNNY     47  21  36 N20       30.39S
GEORGETOWN     SUNNY     47  20  34 N12       30.41F
EASTON         SUNNY     48  23  37 N15       30.46F
CAMBRIDGE      SUNNY     46  19  34 N12G17    30.41F
SALISBURY      SUNNY     49  24  37 N10G23    30.40F
OCEAN CITY     SUNNY     47  25  42 NE14G21   30.40F
WALLOPS ISLAND SUNNY     51  21  30 NE17G23   30.39F
ACCOMACK*      NOT AVBL
$$

NCZ012>017-030>032-162000-
EASTERN NORTH CAROLINA

CITY           SKY/WX    TMP DP  RH WIND       PRES   REMARKS
ELIZABETH CITY SUNNY     49  31  49 N16G28    30.39S
AHOSKIE*       SUNNY     49  24  37 NE12      30.39F
EDENTON*       SUNNY     51  26  37 NE13G20   30.38S
CURRITUCK*     SUNNY     49  30  47 N22G28    30.40S
KILL DEVIL HLS SUNNY     44  27  51 N13G23    30.38S
MANTEO         SUNNY     45  28  51 NE22      30.39S
CAPE HATTERAS  PTSUNNY   45  32  60 NE16G30   30.36R
GOLDSBORO      SUNNY     52  25  35 N13       30.34F
WASHINGTON     SUNNY     53  22  29 NE12      30.37S
GREENVILLE     SUNNY     52  27  37 NE14G23   30.37F
NEW BERN       SUNNY     53  28  38 NE14G21   30.36F
WILMINGTON     SUNNY     57  27  31 N17       30.33S
$$

VAZ048-162000-
ELSEWHERE

CITY           SKY/WX    TMP DP  RH WIND       PRES   REMARKS
HARRISBURG PA  MOSUNNY   45  14  28 N13       30.46F
BALTIMORE      SUNNY     46  16  30 N8        30.43F
ANNAPOLIS      SUNNY     45  19  35 N15G22    30.44F
ANDREWS AFB    SUNNY     46  17  31 N12       30.43F
WILMINGTON DE  SUNNY     47  18  31 N13G20    30.45S
PHILADELPHIA   MOSUNNY   47  16  29 N15G25    30.44S
WILDWOOD NJ*   SUNNY     45  21  39 N10       30.42F
ATLANTIC CITY  SUNNY     48  21  34 NW14      30.40S
HENDERSON NC   SUNNY     51  20  29 NE15G21   30.37S
GREENSBORO     SUNNY     50  23  34 E9G16     30.35F
ROCKY MOUNT      N/A    N/A N/A N/A MISG      30.37F
FAYETTEVILLE   SUNNY     55  24  30 NE12G20   30.35S
CHARLOTTE      SUNNY     53  24  32 VRB5      30.34F
$$

VAZ100-162000-
MARINE

STATION/POSITION TIME  TEMP    WIND        PRES    WAVE   SWELL
                       AIR SEA DIR/SP/G            HT/PER HT/PER
                 (UTC) (F)     (DEG/KT/KT) (MB)    (FT/S) (FT/S)
44066 TX TWR #4  1900   38 45  350/ 17/ 23 1028.7R   8/ 7   3/10
CAPE MAY NJ      1900   44 54  340/  8/ 12 1029.7F
LEWES DE         1900   42 51  350/ 18/ 21 1029.4F
15NM E FENWICK I 1900   40 45              1029.8F   5/ 6
OCEAN-CITY-INLET 1900   43 47   20/ 13/ 18 1029.1F
WACHAPREAGUE VA  1900   47 55  350/  9/ 16 1028.8S
THOMAS POINT MD  1900   43 52  360/ 16/ 19 1031.0F
GOOSES REEF MD   1900   42      40/ 14/ 17 1032.4F
COVE POINT MD    1900   41      20/ 14/ 18 1030.3F
SOLOMONS ISLAND  1900      53                N/A
BISHOPS HEAD MD  1900   46 53  360/ 10/ 16 1029.4F
PINEY POINT MD   1900           50/ 12/ 15   N/A
POTOMAC MD       1900   42      30/ 16/ 21 1029.7S
CAMBRIDGE MD     1900   43 56  330/ 11/ 13 1029.8F
LEWISETTA VA     1900   45 49   30/  8/ 12 1030.0R
RAPPAHANNOCK LGT 1900          350/ 20/ 24 1030.0F
STINGRAY PT      1900   42      40/ 19/ 23 1029.9F
YORK RVR RNG VA  1900   44      40/ 15/ 18 1029.0S
YORKTOWN VA      1900   46 56   20/  9/ 13 1029.3F
JAMESTOWN VA     1900   46      30/ 10/ 17   N/A
DOMINION TERM VA 1900   45      60/ 13/ 18 1029.7S
KIPTOPEKE VA     1900      55  360/ 16/ 22   N/A
CHES BAY BRIDGE  1900   41 52  350/ 23/ 28 1029.9F
CAPE HENRY VA    1900          350/ 19/ 24   N/A
CHESAPEAKE LGHT  1800   41      20/ 18/ 19 1029.9R
WILLOUBY STN VA  1900   42      30/ 19/ 23 1029.0S
S CRANEY ISL VA  1900           10/ 15/ 19 1029.8F
CAPE HENRY BUOY  1900      46                N/A     5/ 9   2/11
1ST LANDING BUOY 1900      46                N/A     4/ 8   3/ 8
64NM E OF VA BCH 1900   42 65   10/ 23/ 29 1028.1R  11/ 9   7/ 9
DUCK PIER NC     1900   41 49   20/ 20/ 24 1028.1S
44100 DUCK FRF   1900      47                N/A     8/ 8   2/11
44056 DUCK FRF   1900      47                N/A     7/ 8   2/11
OREGON INLET NC  1900   43 55   10/ 18/ 24 1028.6F
HATTERAS NC      1900   45 59   30/ 15/ 25 1028.1R
CAPE LOOKOUT NC  1900   49      30/ 21/ 26 1026.9F
FRYING PAN SHLS  1900   49 64   50/ 21/ 27 1026.1F   7/ 7   3/ 8
$$



USA.gov is the U.S. government's official web portal to all federal, state and local government web resources and services.